Location: Unspecified
(0.0000°N, 0.0000°E)
Time: 15:14:09
(UTC+00:00)

A-11 Canister half - Pass Details

Date: 24 November 2019
Orbit: 1513 x 1686 km, 47.2° (Epoch: 08 July)

Event Time Altitude Azimuth Distance (km) Brightness Sun altitude
Exits shadow 01:18:22 17° 131° (SE) 3,245 10.9 -59.6°
Drops below altitude 10° 01:20:00 10° 132° (SE) 3,747 11.4 -59.3°
Sets 01:23:02 0° 135° (SE) 4,712 12.0 -58.8°
